Weather History for East Milton, MA

Change the Weather History Date:

Saturday, February 4, 2012

  Actual Average (KBOS) Record (KBOS)
Temperature  
Mean Temperature 32 °F 30 °F  
Max Temperature 39 °F 37 °F 64 °F (1991)
Min Temperature 24 °F 23 °F -2 °F (1886)
Degree Days  
Heating Degree Days 33 35  
Month to date heating degree days 140  
Since 1 July heating degree days 3250  
Cooling Degree Days 0 0  
Month to date cooling degree days 0  
Year to date cooling degree days 0  
Moisture  
Dew Point 16 °F    
Average Humidity 52    
Maximum Humidity 72    
Minimum Humidity 39    
Precipitation  
Precipitation 0.00 in 0.11 in 2.55 in (1961)
Month to date precipitation 0.43  
Year to date precipitation 3.79  
Sea Level Pressure  
Sea Level Pressure 30.18 in    
Wind  
Wind Speed 12 mph (NW)    
Max Wind Speed 16 mph    
Max Gust Speed 26 mph    
T = Trace of Precipitation, MM = Missing Value Source: NWS Daily Summary

Daily Weather History Graph

Daily Weather History Graph

Search for Another Location

Airport:

Trip Planner

Search our weather history database for the weather conditions in past years. The results will help you decide how hot, cold, wet, or windy it might be!

Date:

Astronomy

Feb. 04, 2012 Rise Set
Actual Time 6:55 AM EST 5:02 PM EST
Civil Twilight 6:25 AM EST 5:31 PM EST
Nautical Twilight 5:52 AM EST 6:05 PM EST
Astronomical Twilight 5:19 AM EST 6:37 PM EST
Moon 1:54 PM EST (2/4) 4:20 AM EST (2/4)
Length of Visible Light 11h 06m
Length of Day
10h 07m
Waxing Gibbous, 89% of the Moon is Illuminated
Feb 4
Waxing Gibbous
Feb 7
Full
Feb 14
Last Quarter
Feb 21
New
Feb 29
First Quarter

Hourly Weather History & Observations

Time (EST) Temp. Windchill Dew Point Humidity Pressure Visibility Wind Dir Wind Speed Gust Speed Precip Events Conditions
12:54 AM 32.0 °F 21.2 °F 18.0 °F 56% 30.26 in - West 16.1 mph 23.0 mph N/A   Unknown
1:54 AM 32.0 °F 23.0 °F 18.0 °F 56% 30.25 in - West 11.5 mph - N/A   Unknown
2:54 AM 30.9 °F 22.2 °F 19.0 °F 61% 30.25 in - West 10.4 mph - N/A   Unknown
3:54 AM 30.9 °F 22.8 °F 19.9 °F 64% 30.24 in - West 9.2 mph - N/A   Unknown
4:54 AM 30.0 °F 21.7 °F 19.9 °F 66% 30.23 in - West 9.2 mph - N/A   Unknown
5:54 AM 28.9 °F 18.6 °F 19.9 °F 69% 30.22 in - West 12.7 mph - N/A   Unknown
6:54 AM 28.9 °F 17.7 °F 21.0 °F 72% 30.23 in - West 15.0 mph - N/A   Unknown
7:54 AM 30.0 °F 19.1 °F 21.0 °F 69% 30.23 in - West 15.0 mph - N/A   Unknown
8:54 AM 34.0 °F 27.2 °F 23.0 °F 64% 30.24 in - WNW 8.1 mph - N/A   Unknown
9:54 AM 37.0 °F 29.8 °F 23.0 °F 57% 30.21 in - WNW 10.4 mph 19.6 mph N/A   Unknown
10:54 AM 39.0 °F 30.6 °F 19.9 °F 46% 30.19 in - NW 15.0 mph 26.5 mph N/A   Unknown
11:54 AM 37.0 °F 29.3 °F 19.9 °F 50% 30.17 in - NNW 11.5 mph 21.9 mph N/A   Unknown
12:54 PM 39.9 °F 32.5 °F 19.0 °F 43% 30.14 in - NNW 12.7 mph 19.6 mph N/A   Unknown
1:54 PM 39.9 °F 32.1 °F 17.1 °F 40% 30.12 in - WNW 13.8 mph 24.2 mph N/A   Unknown
2:54 PM 37.9 °F 30.5 °F 16.0 °F 41% 30.12 in - NNW 11.5 mph 18.4 mph N/A   Unknown
3:54 PM 36.0 °F 29.0 °F 12.9 °F 39% 30.12 in - NNW 9.2 mph 19.6 mph N/A   Unknown
4:54 PM 33.1 °F 27.7 °F 14.0 °F 46% 30.12 in - NNW 5.8 mph - N/A   Unknown
5:54 PM 32.0 °F 23.0 °F 12.0 °F 44% 30.14 in - NNW 11.5 mph - N/A   Unknown
6:54 PM 30.9 °F 22.2 °F 10.0 °F 42% 30.15 in - NNW 10.4 mph 17.3 mph N/A   Unknown
7:54 PM 28.9 °F 20.4 °F 10.9 °F 47% 30.16 in - North 9.2 mph 17.3 mph N/A   Unknown
8:54 PM 27.0 °F 17.3 °F 8.1 °F 45% 30.17 in - North 10.4 mph - N/A   Unknown
9:54 PM 26.1 °F 18.4 °F 6.1 °F 43% 30.16 in - NNW 6.9 mph - N/A   Unknown
10:54 PM 25.0 °F 15.5 °F 7.0 °F 46% 30.15 in - NNW 9.2 mph - N/A   Unknown
11:54 PM 24.1 °F 16.0 °F 8.1 °F 51% 30.14 in - NNW 6.9 mph - N/A   Unknown